Theta_e
298 299 299 299 299 299 299 300 300 300 301 302 302 303 304 306 308 310 313 317 318 324 333 340 343 347 346 344 343 342 342 342 342 342 340 339 338 338 338 338 338 337 337
297 297 297 297 297 297 298 298 298 298 299 300 300 301 301 303 304 306 309 312 315 319 323 333 339 344 347 345 342 341 341 341 341 341 339 338 336 336 336 336 337 336 337
296 296 296 296 296 296 297 297 297 297 297 298 298 298 299 301 302 304 306 309 312 314 321 328 334 340 343 344 342 341 341 339 340 340 339 338 336 335 335 335 336 336 336
295 295 295 295 295 294 294 294 294 294 295 295 295 297 298 299 300 302 303 305 307 310 315 323 330 334 336 339 342 343 341 339 339 339 338 338 336 335 334 334 334 335 335
294 294 294 294 293 293 293 293 293 293 293 294 295 296 297 298 299 300 301 303 306 307 310 315 326 328 331 336 339 342 342 340 339 338 337 337 337 336 334 334 334 334 335
293 293 292 293 292 292 292 292 292 293 293 293 293 294 296 298 300 301 303 305 305 307 309 312 320 331 325 331 336 338 341 341 339 338 336 336 336 336 334 333 334 334 335
292 291 291 291 291 290 290 291 291 290 291 293 292 292 296 301 302 302 304 307 309 309 311 312 316 325 330 326 330 335 338 340 341 338 336 336 334 335 334 333 333 334 334
291 290 290 289 289 289 290 289 289 288 289 290 287 288 289 296 298 297 300 302 303 310 310 311 315 321 326 329 329 330 334 337 338 338 335 335 335 334 333 333 333 333 333
290 290 289 289 289 289 287 288 288 287 286 289 289 287 285 286 288 297 298 298 300 301 312 315 317 321 324 327 328 328 322 323 330 334 335 334 333 333 333 333 333 333 333
290 289 289 289 289 289 288 287 288 287 286 285 288 290 289 288 286 287 296 295 297 299 305 311 317 321 323 321 310 307 308 312 318 327 331 333 333 332 331 332 332 332 333
289 288 288 288 288 288 286 287 286 286 286 285 285 285 286 288 289 288 288 291 295 300 303 308 311 311 309 307 305 304 304 306 310 318 326 330 332 333 332 332 332 332 332
288 287 286 287 287 287 286 286 286 285 285 284 285 285 285 285 286 288 287 289 290 295 299 306 308 307 305 304 303 302 301 303 307 313 317 323 327 329 330 332 333 333 333
286 285 285 285 285 286 286 285 285 285 284 283 283 284 285 286 288 288 289 289 290 295 297 304 304 305 303 301 301 300 300 300 302 307 311 315 318 320 320 329 331 332 332
285 284 283 284 284 285 285 285 286 285 285 284 283 284 285 286 287 288 288 289 289 292 297 299 301 303 300 298 298 298 298 298 298 300 303 305 307 309 310 313 317 325 328
284 283 283 282 283 284 284 284 285 284 285 284 283 284 285 285 287 288 289 289 289 288 293 296 298 298 298 297 297 297 296 297 296 297 298 300 301 302 303 304 305 308 310
283 282 282 282 282 282 283 283 284 283 283 284 283 283 284 284 285 287 288 290 291 290 290 295 293 294 299 298 296 296 295 295 295 295 295 295 297 298 298 299 299 300 301
283 282 281 281 280 281 281 281 282 281 281 282 282 282 283 284 284 285 287 287 288 289 293 290 291 291 292 293 293 295 295 293 294 294 293 293 293 293 294 294 295 296 296
283 282 281 281 280 280 281 280 280 280 280 279 280 281 281 284 283 283 285 284 284 287 291 286 287 288 288 288 287 288 291 292 292 292 292 291 291 291 290 291 292 293 293
282 282 281 280 280 280 279 280 279 279 279 279 279 279 280 282 282 282 282 282 282 284 285 285 282 285 286 287 285 285 285 288 289 290 289 289 290 290 289 289 289 290 291
282 282 282 281 281 280 279 279 279 279 278 278 279 279 279 280 280 281 280 280 281 281 282 280 280 280 281 283 285 283 281 281 283 286 287 286 285 287 287 287 287 288 289
281 281 281 281 282 281 280 278 278 278 278 278 278 279 279 279 280 281 279 279 279 278 278 278 277 276 276 277 277 281 282 281 279 280 282 284 284 283 284 285 285 286 286
279 279 280 280 280 281 279 278 278 277 277 277 277 278 278 277 277 278 278 279 278 277 275 275 274 274 274 275 278 278 279 281 279 278 280 279 282 280 280 283 282 283 283
278 278 278 279 279 280 279 278 277 277 277 276 276 277 276 276 276 276 275 275 277 277 276 276 274 273 274 274 279 278 277 276 275 276 281 278 282 278 280 279 280 280 280
278 278 278 279 280 280 279 278 277 277 277 277 276 275 275 275 275 273 273 272 272 275 275 275 274 274 274 275 278 279 279 278 278 276 277 276 278 279 280 280 277 278 278
277 277 278 278 279 279 278 278 277 277 277 276 278 277 276 275 274 274 270 269 270 270 273 274 274 274 274 274 275 277 276 279 275 273 273 275 274 276 279 278 278 276 276
277 278 278 278 278 279 278 277 278 278 276 276 277 277 276 276 275 273 272 270 268 268 270 271 272 272 272 272 273 273 274 271 273 272 271 273 273 273 278 277 277 276 277
Wind_Speed
7 7 7 7 8 9 9 10 10 10 11 12 12 13 13 13 14 9 9 17 20 20 20 22 25 23 23 21 24 24 23 24 22 23 23 21 22 21 20 18 17 17 18
8 7 7 8 8 9 9 10 10 11 11 12 13 13 14 14 14 15 12 13 19 20 21 22 24 26 23 23 24 25 26 23 23 23 22 21 21 21 21 20 19 19 19
8 8 7 7 8 8 11 9 10 10 10 11 14 14 13 14 13 15 14 12 14 18 18 21 23 21 21 19 21 25 24 24 22 22 21 19 20 20 21 22 21 21 21
9 7 6 7 9 8 9 9 10 10 11 11 12 12 12 13 16 16 14 13 13 13 13 18 19 20 21 20 19 21 23 23 23 23 23 22 24 23 22 24 23 23 22
9 7 7 7 9 8 7 8 9 10 11 11 12 12 13 13 14 13 16 16 16 16 12 16 16 15 17 19 18 21 22 23 23 23 21 21 23 21 23 27 25 24 23
9 8 6 7 8 7 7 9 11 10 11 12 13 13 13 12 10 10 12 12 14 16 16 16 12 10 13 15 19 21 25 25 24 24 26 21 17 16 18 25 26 23 24
8 8 6 7 8 7 8 10 9 12 10 11 12 13 9 10 5 9 12 9 12 13 14 14 11 7 6 14 17 21 25 26 23 23 24 19 17 18 19 21 25 28 24
8 7 7 7 7 7 9 10 11 9 8 10 8 10 9 6 8 17 7 9 14 8 11 14 14 14 8 5 10 18 22 22 21 22 20 16 16 17 14 17 20 24 26
7 8 8 7 7 7 7 9 10 11 8 9 9 4 6 5 15 7 12 7 12 12 13 9 11 12 11 7 7 10 12 13 14 15 18 16 13 16 15 16 19 22 26
6 8 8 7 8 7 9 8 8 9 9 9 8 3 8 10 4 10 8 10 12 12 14 8 6 4 7 3 13 16 14 6 10 13 14 14 17 21 22 20 22 17 19
6 7 8 9 9 7 8 9 9 9 7 7 8 9 10 8 10 7 13 10 9 10 10 10 8 8 11 10 10 13 16 12 7 7 11 14 17 20 25 25 24 19 18
4 9 9 9 8 8 8 8 9 10 9 8 8 9 8 6 6 7 6 11 11 7 10 6 7 8 8 9 14 22 23 19 16 6 4 7 11 10 10 20 21 19 17
5 9 10 9 7 8 8 8 9 8 9 9 10 9 9 9 8 7 9 8 7 7 5 5 6 6 8 8 12 21 25 24 23 22 20 14 7 7 9 6 14 20 19
6 8 8 8 8 8 8 8 6 7 9 9 12 11 9 8 8 7 5 8 6 6 2 5 6 8 6 10 13 25 17 26 26 25 24 25 24 23 26 24 20 5 10
6 8 8 8 8 8 9 8 6 9 9 10 11 12 10 8 8 7 5 5 5 3 3 7 4 9 9 10 12 14 15 28 29 26 26 27 28 29 29 29 26 26 23
6 7 8 8 7 8 9 8 7 10 10 10 10 14 13 10 9 7 6 5 5 7 3 6 6 7 7 9 15 13 13 26 29 27 28 29 30 30 30 29 29 28 27
6 7 8 7 7 8 8 8 9 10 11 12 14 15 17 14 9 9 7 6 5 5 4 3 5 7 9 13 10 10 12 13 16 27 28 29 29 30 30 29 29 29 29
5 6 7 8 8 8 8 9 9 9 11 13 14 16 17 12 14 12 9 10 8 6 2 6 6 6 8 9 8 10 7 10 14 25 29 30 28 30 29 28 28 26 28
4 6 7 8 8 9 9 8 8 9 10 12 13 14 16 18 17 12 12 10 9 8 8 6 5 5 6 5 8 8 10 12 8 21 26 27 29 32 30 31 29 28 27
5 6 6 7 8 10 9 8 8 9 9 11 11 13 15 17 18 16 14 13 11 10 10 9 7 6 5 5 5 6 9 8 10 12 16 19 23 28 30 29 30 27 27
5 6 6 6 7 10 9 9 9 9 10 10 11 11 14 17 23 23 13 15 14 11 10 9 9 7 7 6 6 4 5 7 11 8 10 9 11 12 14 22 23 26 26
7 7 8 8 8 7 13 16 11 10 12 11 11 12 12 15 16 23 25 29 24 14 14 10 9 8 11 7 8 7 4 3 3 8 5 10 9 11 13 14 24 25 25
7 7 7 7 8 8 12 14 13 9 11 11 12 11 11 11 13 12 18 21 26 27 23 14 14 13 9 9 8 9 11 8 6 7 4 8 6 9 9 13 23 25 25
7 7 6 6 6 7 10 12 13 10 10 12 13 12 13 13 15 12 12 14 15 17 17 12 15 14 14 10 6 6 6 8 8 10 11 5 7 6 7 8 24 22 24
7 6 5 5 5 6 8 9 8 8 10 12 11 12 13 13 18 17 12 13 13 13 14 21 22 22 25 27 20 8 8 4 6 7 13 5 6 4 3 6 10 20 21
7 6 6 5 7 5 9 8 5 6 7 8 10 11 19 15 19 18 11 10 11 11 10 11 12 15 18 18 24 16 10 10 5 4 11 5 6 5 2 4 8 11 10
Wind_Direction
30 19 16 10 4 354 351 344 339 332 324 320 314 309 306 300 294 290 287 285 287 283 279 268 257 246 241 227 215 213 213 211 207 203 203 202 197 197 197 201 197 198 191
23 18 13 9 2 353 345 337 335 328 323 319 312 311 303 299 294 289 285 287 284 281 278 275 263 252 238 235 221 213 213 211 206 205 206 204 202 200 200 199 200 194 197
24 15 12 5 358 345 337 335 331 328 320 317 310 308 304 295 291 289 284 279 285 277 272 272 269 253 248 239 227 218 214 209 207 206 203 204 204 204 205 199 200 197 198
24 17 11 4 354 346 342 341 338 331 325 318 314 309 304 300 292 284 279 277 274 276 274 268 258 258 251 250 227 214 214 200 197 201 202 208 215 196 211 208 199 201 197
22 13 9 1 349 345 344 339 334 329 320 318 313 308 304 295 291 289 286 278 269 265 265 261 269 249 251 244 234 219 217 207 209 210 208 207 213 205 208 217 203 201 198
21 11 5 358 352 346 349 345 336 335 323 324 320 310 307 293 291 294 292 282 272 264 262 258 254 260 223 243 235 233 223 215 220 226 217 217 209 211 219 223 210 201 200
20 11 6 357 355 352 346 346 340 336 333 337 321 328 307 304 290 337 335 314 296 274 260 257 254 245 251 218 238 239 236 229 219 221 216 227 215 211 215 227 219 208 203
16 9 4 3 357 350 352 351 345 340 331 351 334 310 338 319 347 322 316 330 348 299 272 254 250 245 244 251 232 232 240 238 239 231 229 228 228 215 215 223 236 221 203
15 10 9 5 0 357 353 351 343 342 328 337 350 318 327 324 333 304 319 358 344 343 335 256 247 236 251 251 240 234 235 241 247 247 234 223 223 231 222 226 232 231 216
21 15 8 4 7 1 358 345 345 343 341 333 329 344 302 294 313 317 321 335 346 330 339 352 17 306 270 18 50 28 14 304 248 234 245 231 222 210 230 230 231 232 234
21 13 10 9 11 4 356 341 348 354 341 329 326 322 313 305 268 264 296 329 343 340 343 329 20 44 55 57 51 37 34 31 19 253 241 231 228 220 217 224 220 223 232
7 20 10 11 8 3 350 349 354 353 351 342 336 324 317 313 308 289 297 307 312 321 320 340 5 47 40 56 51 48 42 40 43 34 239 236 243 236 262 232 209 215 230
16 14 7 5 2 359 352 359 357 352 0 351 337 325 313 303 296 301 293 289 292 317 301 19 2 71 51 58 50 54 45 48 47 53 56 64 67 67 41 240 215 215 220
27 12 6 5 360 358 360 359 359 1 1 356 347 340 323 316 308 303 301 304 299 297 305 255 32 53 54 53 53 56 48 50 51 54 57 60 64 67 64 58 52 239 236
27 17 11 10 0 7 7 353 7 6 6 6 1 346 343 329 317 310 305 293 294 313 305 27 49 18 59 68 64 68 58 60 59 58 58 63 63 64 66 64 59 59 61
37 28 18 13 9 16 13 5 9 8 10 13 10 1 360 346 336 332 322 309 273 270 255 6 44 23 79 96 61 64 61 69 64 60 63 61 65 63 64 64 63 63 60
47 38 31 19 16 23 19 19 18 15 16 14 14 8 8 1 353 352 346 344 334 324 236 75 46 29 45 58 57 71 58 65 64 65 64 63 64 61 60 61 61 61 59
68 51 40 35 27 30 24 24 24 21 21 21 15 18 12 9 13 8 2 6 357 351 339 95 41 42 53 58 56 50 67 67 66 60 65 59 65 62 58 57 56 56 58
91 68 50 39 33 35 29 28 23 26 30 30 22 22 16 16 21 14 14 15 11 21 39 73 69 31 54 32 66 40 47 61 68 61 59 52 56 58 55 55 52 51 53
95 83 61 50 45 46 38 30 31 28 35 38 27 31 28 25 23 22 25 21 23 35 39 48 45 30 15 14 36 56 54 38 41 50 57 61 58 54 52 48 51 46 47
93 84 74 61 58 54 40 38 38 33 35 35 41 33 37 37 39 36 35 30 34 42 45 46 46 39 26 20 20 343 107 90 61 24 55 43 52 51 47 45 46 45 45
96 87 79 71 58 60 54 53 47 47 40 37 36 36 39 36 42 46 41 51 48 43 50 47 43 38 27 10 27 21 8 3 66 23 24 47 42 54 45 40 45 44 44
112 99 84 75 70 67 66 62 57 52 54 44 42 36 41 37 35 45 52 47 49 52 50 51 52 35 20 2 2 45 55 60 60 8 331 61 41 62 53 43 39 42 40
115 106 90 78 79 77 77 74 69 61 57 55 51 45 47 43 43 39 53 55 49 44 48 50 50 46 38 23 6 18 79 95 82 49 354 62 12 52 49 48 39 37 35
120 106 90 82 79 81 82 80 75 73 64 57 50 58 49 50 45 46 49 52 57 49 46 51 56 51 44 42 38 47 35 25 54 35 21 2 13 341 29 43 30 29 30
125 120 105 87 76 74 88 83 80 83 73 72 63 58 54 56 54 50 51 50 56 39 38 41 42 40 41 39 41 42 36 50 38 39 17 360 1 358 171 59 33 22 15